Hourly Data Report for March 22, 2021

KUGAARUK CLIMATE
NUNAVUT
Current Station Operator: ECCC - MSC

68°32'15.060" N
89°47'47.020" W
15.80 m
2303094
71407
NBB

Download Data

Hourly Data (March 2021)
Hourly Data Report for March 22, 2021
TIME
LST
Temp Definition
°C
Dew Point Definition
°C
Rel Hum Definition
%
Precip. Amount Definition
mm

Wind Dir Definition
10's deg

Wind Spd Definition
km/h
Visibility Definition
km
Stn Press Definition
kPa
Hmdx Definition


Wind Chill Definition


Weather Definition


00:00 -31.8 -36.0 66 0.0 23 29   101.59   -48 LegendNANA
01:00 -32.2 -36.2 68 0.0 24 20   101.62   -46 LegendNANA
02:00 -32.6 -36.4 69 0.0 24 22   101.62   -47 LegendNANA
03:00 -33.6 -37.4 69 0.0 24 30   101.62   -50 LegendNANA
04:00 -34.1 -37.9 68 0.0 24 33   101.63   -52 LegendNANA
05:00 -34.0 -37.9 68 0.0 24 29   101.66   -51 LegendNANA
06:00 -34.5 -38.5 67 0.0 23 34   101.65   -52 LegendNANA
07:00 -34.3 -38.5 66 0.0 24 41   101.61   -53 LegendNANA
08:00 -33.8 -38.2 65 0.0 24 36   101.61   -52 LegendNANA
09:00 -32.7 -37.4 63 0.0 22 35   101.64   -50 LegendNANA
10:00 -32.1 -36.7 63 0.0 23 38   101.62   -50 LegendNANA
11:00 -31.4 -35.8 65 0.0 24 40   101.56   -49 LegendNANA
12:00 -30.9 -35.4 65 0.0 24 38   101.60   -48 LegendNANA
13:00 -30.1 -34.4 66 0.0 23 35   101.60   -47 LegendNANA
14:00 -29.3 -33.2 69 0.0 23 29   101.63   -44 LegendNANA
15:00 -29.5 -33.5 69 0.0 26 37   101.63   -46 LegendNANA
16:00 -29.3 -32.6 73 0.0 25 32   101.61   -45 LegendNANA
17:00 -29.8 -33.1 73 0.0 25 34   101.65   -46 LegendNANA
18:00 -30.6 -33.9 72 0.0 27 35   101.66   -47 LegendNANA
19:00 -30.9 -34.2 73 0.0 27 42   101.59   -49 LegendNANA
20:00 -31.3 -34.6 73 0.0 26 27   101.69   -47 LegendNANA
21:00 -31.2 -34.5 73 0.0 28 31   101.68   -47 LegendNANA
22:00 -31.2 -34.5 73 0.0 27 19   101.72   -44 LegendNANA
23:00 -31.1 -34.4 73 0.0 29 25   101.66   -46 LegendNANA

Notes on Data Quality.

Legend

  • E = Estimated
  • M = Missing
  • NA = Not Available*
  • [empty] = Indicates an unobserved value
Date modified: